Weather History for K36U - September, 2013

Change the Weather History Date:

Wednesday, September 25, 2013

  Actual Average (KPVU) Record (KPVU)
Temperature  
Mean Temperature 50 °F -  
Max Temperature 66 °F 71 °F 87 °F (2001)
Min Temperature 35 °F 44 °F 33 °F (2007)
Degree Days  
Heating Degree Days 14    
Moisture  
Dew Point 30 °F    
Average Humidity 49    
Maximum Humidity 93    
Minimum Humidity 19    
Precipitation  
Precipitation 0.00 in - - ()
Sea Level Pressure  
Sea Level Pressure 29.74 in    
Wind  
Wind Speed 12 mph (South)    
Max Wind Speed 23 mph    
Max Gust Speed 38 mph    
Visibility 9 miles    
Events Rain    
Averages and records for this station are not official NWS values.
T = Trace of Precipitation, MM = Missing Value Source: NWS Daily Summary

Daily Weather History Graph

Daily Weather History Graph

Search for Another Location

Airport or City:

Trip Planner

Search our weather history database for the weather conditions in past years. The results will help you decide how hot, cold, wet, or windy it might be!

Date:

Astronomy

Sep. 25, 2013 Rise Set
Actual Time 7:16 AM MDT 7:17 PM MDT
Civil Twilight 6:49 AM MDT 7:44 PM MDT
Nautical Twilight 6:17 AM MDT 8:16 PM MDT
Astronomical Twilight 5:45 AM MDT 8:48 PM MDT
Moon 11:25 PM MDT (9/25) 1:26 PM MDT (9/25)
Length of Visible Light 12h 55m
Length of Day
12h 00m
Waning Gibbous, 63% of the Moon is Illuminated
Sep 25
Waning Gibbous
Sep 26
Last Quarter
Oct 4
New
Oct 11
First Quarter
Oct 18
Full

Hourly Weather History & Observations

Time (MDT) Temp. Windchill Dew Point Humidity Pressure Visibility Wind Dir Wind Speed Gust Speed Precip Events Conditions
12:15 AM 64.4 °F - 26.6 °F 24% 29.80 in 10.0 mi South 9.2 mph - N/A   Clear
12:35 AM 66.2 °F - 23.0 °F 19% 29.79 in 10.0 mi South 13.8 mph 29.9 mph N/A   Scattered Clouds
12:55 AM 64.4 °F - 24.8 °F 22% 29.79 in 10.0 mi SSW 12.7 mph 21.9 mph N/A   Clear
1:15 AM 64.4 °F - 24.8 °F 22% 29.79 in 10.0 mi SSW 11.5 mph 24.2 mph N/A   Clear
1:35 AM 64.4 °F - 26.6 °F 24% 29.78 in 10.0 mi SW 15.0 mph 20.7 mph N/A   Scattered Clouds
1:55 AM 64.4 °F - 24.8 °F 22% 29.77 in 10.0 mi SSW 21.9 mph 33.4 mph N/A   Scattered Clouds
2:15 AM 64.4 °F - 26.6 °F 24% 29.77 in 10.0 mi SSW 17.3 mph 25.3 mph N/A   Scattered Clouds
2:35 AM 66.2 °F - 24.8 °F 21% 29.75 in 10.0 mi SSW 19.6 mph 32.2 mph N/A   Clear
2:55 AM 64.4 °F - 24.8 °F 22% 29.74 in 10.0 mi South 18.4 mph 31.1 mph N/A   Scattered Clouds
3:15 AM 64.4 °F - 24.8 °F 22% 29.74 in 10.0 mi South 9.2 mph 23.0 mph N/A   Scattered Clouds
3:35 AM 64.4 °F - 24.8 °F 22% 29.72 in 10.0 mi South 15.0 mph 25.3 mph N/A   Scattered Clouds
3:55 AM 64.4 °F - 24.8 °F 22% 29.72 in 10.0 mi South 10.4 mph 20.7 mph N/A   Scattered Clouds
4:15 AM 64.4 °F - 24.8 °F 22% 29.71 in 10.0 mi South 15.0 mph 21.9 mph N/A   Mostly Cloudy
4:35 AM 64.4 °F - 24.8 °F 22% 29.71 in 10.0 mi SSW 10.4 mph 21.9 mph N/A   Scattered Clouds
4:55 AM 62.6 °F - 24.8 °F 24% 29.70 in 10.0 mi South 13.8 mph 21.9 mph N/A   Scattered Clouds
5:15 AM 62.6 °F - 24.8 °F 24% 29.69 in 10.0 mi South 12.7 mph 25.3 mph N/A   Scattered Clouds
5:35 AM 62.6 °F - 24.8 °F 24% 29.68 in 10.0 mi South 16.1 mph 27.6 mph N/A   Scattered Clouds
5:55 AM 62.6 °F - 26.6 °F 26% 29.67 in 10.0 mi South 11.5 mph 21.9 mph N/A   Scattered Clouds
6:15 AM 62.6 °F - 26.6 °F 26% 29.66 in 10.0 mi SSE 12.7 mph 24.2 mph N/A   Scattered Clouds
6:35 AM 62.6 °F - 26.6 °F 26% 29.66 in 10.0 mi South 10.4 mph 23.0 mph N/A   Scattered Clouds
6:55 AM 62.6 °F - 26.6 °F 26% 29.66 in 10.0 mi South 13.8 mph 24.2 mph N/A   Scattered Clouds
7:15 AM 62.6 °F - 26.6 °F 26% 29.65 in 10.0 mi SSE 16.1 mph 25.3 mph N/A   Scattered Clouds
7:35 AM 62.6 °F - 26.6 °F 26% 29.65 in 10.0 mi South 13.8 mph 20.7 mph N/A   Mostly Cloudy
7:55 AM 60.8 °F - 26.6 °F 27% 29.65 in 10.0 mi South 9.2 mph 18.4 mph N/A   Mostly Cloudy
8:15 AM 60.8 °F - 26.6 °F 27% 29.65 in 10.0 mi South 15.0 mph 23.0 mph N/A   Overcast
8:35 AM 62.6 °F - 26.6 °F 26% 29.64 in 10.0 mi SSW 6.9 mph 31.1 mph N/A   Overcast
8:55 AM 62.6 °F - 26.6 °F 26% 29.64 in 10.0 mi South 15.0 mph 31.1 mph N/A   Overcast
9:15 AM 62.6 °F - 26.6 °F 26% 29.64 in 10.0 mi South 10.4 mph 19.6 mph N/A   Overcast
9:35 AM 62.6 °F - 26.6 °F 26% 29.64 in 10.0 mi SSW 15.0 mph 32.2 mph N/A   Overcast
9:55 AM 62.6 °F - 28.4 °F 27% 29.63 in 10.0 mi SW 20.7 mph 27.6 mph N/A   Overcast
10:15 AM 62.6 °F - 28.4 °F 27% 29.63 in 10.0 mi SSW 21.9 mph 38.0 mph N/A   Overcast
10:35 AM 62.6 °F - 28.4 °F 27% 29.64 in 10.0 mi SSW 18.4 mph 29.9 mph N/A   Overcast
10:55 AM 60.8 °F - 28.4 °F 29% 29.64 in 10.0 mi SSW 23.0 mph 33.4 mph N/A Rain Light Rain
11:15 AM 59.0 °F - 32.0 °F 36% 29.65 in 7.0 mi West 18.4 mph 33.4 mph N/A Rain Rain
11:35 AM 55.4 °F - 33.8 °F 44% 29.66 in 10.0 mi SW 15.0 mph 32.2 mph N/A Rain Rain
12:15 PM 59.0 °F - 32.0 °F 36% 29.66 in 10.0 mi SW 5.8 mph - N/A   Overcast
12:35 PM 59.0 °F - 32.0 °F 36% 29.66 in 10.0 mi SSW 13.8 mph 21.9 mph N/A   Mostly Cloudy
12:55 PM 60.8 °F - 33.8 °F 36% 29.66 in 10.0 mi SSE 8.1 mph 17.3 mph N/A   Mostly Cloudy
1:15 PM 60.8 °F - 32.0 °F 34% 29.65 in 10.0 mi South 8.1 mph - N/A   Scattered Clouds
1:35 PM 64.4 °F - 32.0 °F 30% 29.65 in 10.0 mi Calm Calm - N/A   Mostly Cloudy
1:55 PM 55.4 °F - 37.4 °F 51% 29.67 in 10.0 mi NNE 16.1 mph 25.3 mph N/A   Overcast
2:15 PM 53.6 °F - 35.6 °F 51% 29.68 in 10.0 mi NNE 13.8 mph 25.3 mph N/A   Overcast
2:35 PM 55.4 °F - 35.6 °F 47% 29.68 in 10.0 mi NE 13.8 mph 17.3 mph N/A   Overcast
2:55 PM 51.8 °F - 35.6 °F 54% 29.72 in 10.0 mi NE 4.6 mph - N/A   Mostly Cloudy
3:15 PM 50.0 °F - 33.8 °F 54% 29.72 in 10.0 mi NE 15.0 mph 26.5 mph N/A   Mostly Cloudy
3:35 PM 50.0 °F - 33.8 °F 54% 29.73 in 10.0 mi ENE 11.5 mph 24.2 mph N/A   Mostly Cloudy
3:55 PM 46.4 °F 41.1 °F 32.0 °F 57% 29.74 in 10.0 mi East 11.5 mph 19.6 mph N/A   Overcast
4:15 PM 44.6 °F 40.2 °F 32.0 °F 61% 29.76 in 10.0 mi ENE 8.1 mph 21.9 mph N/A   Overcast
4:35 PM 42.8 °F 35.1 °F 33.8 °F 70% 29.77 in 10.0 mi ENE 16.1 mph 20.7 mph N/A   Overcast
4:55 PM 41.0 °F 34.3 °F 35.6 °F 81% 29.80 in 5.0 mi NE 11.5 mph - N/A   Overcast
5:15 PM 39.2 °F 33.6 °F 35.6 °F 87% 29.80 in 5.0 mi NE 8.1 mph - N/A   Overcast
5:35 PM 39.2 °F 33.6 °F 35.6 °F 87% 29.81 in 5.0 mi East 8.1 mph - N/A   Overcast
5:55 PM 39.2 °F 35.9 °F 35.6 °F 87% 29.82 in 2.5 mi East 4.6 mph - N/A   Unknown
6:15 PM 37.4 °F - 35.6 °F 93% 29.83 in 3.0 mi Calm Calm - N/A   Overcast
6:35 PM 37.4 °F 32.1 °F 35.6 °F 93% 29.82 in 2.5 mi ESE 6.9 mph - N/A   Overcast
6:55 PM 37.4 °F 32.1 °F 33.8 °F 87% 29.82 in 4.0 mi SE 6.9 mph - N/A   Overcast
7:15 PM 37.4 °F 32.1 °F 33.8 °F 87% 29.82 in 5.0 mi SE 6.9 mph - N/A   Overcast
7:35 PM 37.4 °F 34.9 °F 33.8 °F 87% 29.82 in 5.0 mi ESE 3.5 mph - N/A   Overcast
7:55 PM 37.4 °F 33.8 °F 33.8 °F 87% 29.82 in 5.0 mi ESE 4.6 mph - N/A   Overcast
8:15 PM 37.4 °F 32.8 °F 33.8 °F 87% 29.82 in 7.0 mi East 5.8 mph - N/A   Overcast
8:35 PM 37.4 °F 33.8 °F 33.8 °F 87% 29.83 in 10.0 mi ESE 4.6 mph - N/A   Overcast
8:55 PM 37.4 °F - 33.8 °F 87% 29.83 in 7.0 mi Calm Calm - N/A   Overcast
9:15 PM 37.4 °F 33.8 °F 33.8 °F 87% 29.83 in 10.0 mi NW 4.6 mph - N/A   Overcast
9:35 PM 37.4 °F 32.8 °F 35.6 °F 93% 29.84 in 7.0 mi WNW 5.8 mph - N/A   Overcast
9:55 PM 37.4 °F 33.8 °F 33.8 °F 87% 29.83 in 10.0 mi WNW 4.6 mph - N/A   Overcast
10:15 PM 35.6 °F 32.8 °F 33.8 °F 93% 29.83 in 7.0 mi West 3.5 mph - N/A   Overcast
10:35 PM 35.6 °F 32.8 °F 33.8 °F 93% 29.84 in 10.0 mi WSW 3.5 mph - N/A   Overcast
10:55 PM 35.6 °F - 33.8 °F 93% 29.83 in 10.0 mi Calm Calm - N/A   Overcast
11:15 PM 35.6 °F - 32.0 °F 87% 29.83 in 10.0 mi Calm Calm - N/A   Overcast
11:35 PM 35.6 °F - 33.8 °F 93% 29.83 in 10.0 mi Calm Calm - N/A   Overcast
11:55 PM 37.4 °F - 33.8 °F 87% 29.83 in 10.0 mi Calm Calm - N/A   Overcast